Data supplied by UK-AIR on 30/3/2022
All Data GMT hour ending 
Status: R =Ratified P=Provisional,P*=As supplied
,,Belfast Stockman's Lane,,,,,,,,,,,,,,,,,,,,,,,
Date,time,"PM<sub>10</sub> particulate matter (Hourly measured)",status,unit,"Nitric oxide",status,unit,"Nitrogen dioxide",status,unit,"Nitrogen oxides as nitrogen dioxide",status,unit
 
01-01-2021,01:00,14.493,R,ugm-3 (Ref.eq),5.05937,R,ugm-3,3.63899,R,ugm-3,11.39657,R,ugm-3
01-01-2021,02:00,4.831,R,ugm-3 (Ref.eq),3.47211,R,ugm-3,3.01326,R,ugm-3,8.33709,R,ugm-3
01-01-2021,03:00,5.797,R,ugm-3 (Ref.eq),3.34811,R,ugm-3,3.12691,R,ugm-3,8.26060,R,ugm-3
01-01-2021,04:00,3.865,R,ugm-3 (Ref.eq),3.08770,R,ugm-3,2.89518,R,ugm-3,7.62958,R,ugm-3
01-01-2021,05:00,2.899,R,ugm-3 (Ref.eq),6.13820,R,ugm-3,5.44583,R,ugm-3,14.85761,R,ugm-3
01-01-2021,06:00,4.831,R,ugm-3 (Ref.eq),6.73342,R,ugm-3,6.71306,R,ugm-3,17.03749,R,ugm-3
01-01-2021,07:00,5.797,R,ugm-3 (Ref.eq),11.01156,R,ugm-3,15.29777,R,ugm-3,32.18193,R,ugm-3
01-01-2021,08:00,5.797,R,ugm-3 (Ref.eq),9.03990,R,ugm-3,12.24023,R,ugm-3,26.10121,R,ugm-3
01-01-2021,09:00,5.797,R,ugm-3 (Ref.eq),5.50578,R,ugm-3,6.75972,R,ugm-3,15.20181,R,ugm-3
01-01-2021,10:00,5.797,R,ugm-3 (Ref.eq),9.96993,R,ugm-3,10.58474,R,ugm-3,25.87175,R,ugm-3
01-01-2021,11:00,5.797,R,ugm-3 (Ref.eq),10.60235,R,ugm-3,11.33600,R,ugm-3,27.59271,R,ugm-3
01-01-2021,12:00,5.797,R,ugm-3 (Ref.eq),7.99826,R,ugm-3,7.87139,R,ugm-3,20.13522,R,ugm-3
01-01-2021,13:00,6.763,R,ugm-3 (Ref.eq),12.27641,R,ugm-3,15.19406,R,ugm-3,34.01762,R,ugm-3
01-01-2021,14:00,7.730,R,ugm-3 (Ref.eq),18.04260,R,ugm-3,21.32504,R,ugm-3,48.98997,R,ugm-3
01-01-2021,15:00,7.730,R,ugm-3 (Ref.eq),37.23843,R,ugm-3,41.34072,R,ugm-3,98.43885,R,ugm-3
01-01-2021,16:00,7.730,R,ugm-3 (Ref.eq),27.71491,R,ugm-3,36.84060,R,ugm-3,79.33621,R,ugm-3
01-01-2021,17:00,14.493,R,ugm-3 (Ref.eq),29.24017,R,ugm-3,37.54228,R,ugm-3,82.37657,R,ugm-3
01-01-2021,18:00,12.561,R,ugm-3 (Ref.eq),20.94429,R,ugm-3,28.00470,R,ugm-3,60.11883,R,ugm-3
01-01-2021,19:00,7.730,R,ugm-3 (Ref.eq),8.48188,R,ugm-3,17.68507,R,ugm-3,30.69043,R,ugm-3
01-01-2021,20:00,8.696,R,ugm-3 (Ref.eq),6.28701,R,ugm-3,14.16666,R,ugm-3,23.80660,R,ugm-3
01-01-2021,21:00,7.730,R,ugm-3 (Ref.eq),6.99383,R,ugm-3,17.38527,R,ugm-3,28.10900,R,ugm-3
01-01-2021,22:00,10.628,R,ugm-3 (Ref.eq),7.06823,R,ugm-3,14.11610,R,ugm-3,24.95390,R,ugm-3
01-01-2021,23:00,6.763,R,ugm-3 (Ref.eq),4.94776,R,ugm-3,11.86037,R,ugm-3,19.44684,R,ugm-3
01-01-2021,24:00,8.696,R,ugm-3 (Ref.eq),6.21261,R,ugm-3,12.61714,R,ugm-3,22.14301,R,ugm-3
02-01-2021,01:00,11.594,R,ugm-3 (Ref.eq),17.92967,R,ugm-3,21.77058,R,ugm-3,49.26236,R,ugm-3
02-01-2021,02:00,7.730,R,ugm-3 (Ref.eq),11.67167,R,ugm-3,14.97080,R,ugm-3,32.86711,R,ugm-3
02-01-2021,03:00,5.797,R,ugm-3 (Ref.eq),5.51300,R,ugm-3,7.80803,R,ugm-3,16.26118,R,ugm-3
02-01-2021,04:00,10.628,R,ugm-3 (Ref.eq),3.05450,R,ugm-3,4.51010,R,ugm-3,9.19360,R,ugm-3
02-01-2021,05:00,7.730,R,ugm-3 (Ref.eq),6.10900,R,ugm-3,10.91637,R,ugm-3,20.28337,R,ugm-3
02-01-2021,06:00,8.696,R,ugm-3 (Ref.eq),12.51600,R,ugm-3,14.76792,R,ugm-3,33.95885,R,ugm-3
02-01-2021,07:00,5.797,R,ugm-3 (Ref.eq),12.06900,R,ugm-3,16.71743,R,ugm-3,35.22297,R,ugm-3
02-01-2021,08:00,1.932,R,ugm-3 (Ref.eq),25.18100,R,ugm-3,33.67433,R,ugm-3,72.28466,R,ugm-3
02-01-2021,09:00,5.797,R,ugm-3 (Ref.eq),36.91475,R,ugm-3,34.52970,R,ugm-3,91.13153,R,ugm-3
02-01-2021,10:00,8.696,R,ugm-3 (Ref.eq),42.20425,R,ugm-3,41.41630,R,ugm-3,106.12859,R,ugm-3
02-01-2021,11:00,6.763,R,ugm-3 (Ref.eq),39.78300,R,ugm-3,39.26792,R,ugm-3,100.26767,R,ugm-3
02-01-2021,12:00,10.628,R,ugm-3 (Ref.eq),38.21850,R,ugm-3,44.88454,R,ugm-3,103.48543,R,ugm-3
02-01-2021,13:00,5.797,R,ugm-3 (Ref.eq),19.29550,R,ugm-3,29.77014,R,ugm-3,59.35616,R,ugm-3
02-01-2021,14:00,13.527,R,ugm-3 (Ref.eq),27.78850,R,ugm-3,28.00988,R,ugm-3,70.61832,R,ugm-3
02-01-2021,15:00,8.696,R,ugm-3 (Ref.eq),24.99475,R,ugm-3,33.15547,R,ugm-3,71.48022,R,ugm-3
02-01-2021,16:00,5.797,R,ugm-3 (Ref.eq),38.77725,R,ugm-3,55.23250,R,ugm-3,114.69013,R,ugm-3
02-01-2021,17:00,9.662,R,ugm-3 (Ref.eq),47.00950,R,ugm-3,56.85997,R,ugm-3,128.94020,R,ugm-3
02-01-2021,18:00,10.628,R,ugm-3 (Ref.eq),52.07551,R,ugm-3,57.02169,R,ugm-3,136.86968,R,ugm-3
02-01-2021,19:00,23.189,R,ugm-3 (Ref.eq),145.72201,R,ugm-3,84.54820,R,ugm-3,307.98551,R,ugm-3
02-01-2021,20:00,38.648,R,ugm-3 (Ref.eq),97.48326,R,ugm-3,69.96743,R,ugm-3,219.43967,R,ugm-3
02-01-2021,21:00,58.938,R,ugm-3 (Ref.eq),115.02801,R,ugm-3,64.09621,R,ugm-3,240.47003,R,ugm-3
02-01-2021,22:00,64.735,R,ugm-3 (Ref.eq),91.82126,R,ugm-3,56.81425,R,ugm-3,197.60488,R,ugm-3
02-01-2021,23:00,49.276,R,ugm-3 (Ref.eq),65.67176,R,ugm-3,49.67749,R,ugm-3,150.37277,R,ugm-3
02-01-2021,24:00,55.073,R,ugm-3 (Ref.eq),84.63201,R,ugm-3,48.18630,R,ugm-3,177.95357,R,ugm-3
03-01-2021,01:00,46.378,R,ugm-3 (Ref.eq),86.18505,R,ugm-3,45.19655,R,ugm-3,177.34511,R,ugm-3
03-01-2021,02:00,34.783,R,ugm-3 (Ref.eq),59.92670,R,ugm-3,32.27827,R,ugm-3,124.16460,R,ugm-3
03-01-2021,03:00,30.918,R,ugm-3 (Ref.eq),41.32705,R,ugm-3,32.05838,R,ugm-3,95.42564,R,ugm-3
03-01-2021,04:00,20.290,R,ugm-3 (Ref.eq),35.43384,R,ugm-3,27.91449,R,ugm-3,82.24562,R,ugm-3
03-01-2021,05:00,12.561,R,ugm-3 (Ref.eq),24.95288,R,ugm-3,28.15753,R,ugm-3,66.41809,R,ugm-3
03-01-2021,06:00,10.628,R,ugm-3 (Ref.eq),34.24028,R,ugm-3,23.41358,R,ugm-3,75.91461,R,ugm-3
03-01-2021,07:00,6.763,R,ugm-3 (Ref.eq),28.79466,R,ugm-3,27.61948,R,ugm-3,71.77067,R,ugm-3
03-01-2021,08:00,3.865,R,ugm-3 (Ref.eq),10.40636,R,ugm-3,14.77800,R,ugm-3,30.73419,R,ugm-3
03-01-2021,09:00,1.932,R,ugm-3 (Ref.eq),17.82882,R,ugm-3,23.42608,R,ugm-3,50.76322,R,ugm-3
03-01-2021,10:00,3.865,R,ugm-3 (Ref.eq),25.92265,R,ugm-3,32.36849,R,ugm-3,72.11600,R,ugm-3
03-01-2021,11:00,11.594,R,ugm-3 (Ref.eq),17.41853,R,ugm-3,26.24225,R,ugm-3,52.95029,R,ugm-3
03-01-2021,12:00,8.696,R,ugm-3 (Ref.eq),26.10915,R,ugm-3,25.69397,R,ugm-3,65.72743,R,ugm-3
03-01-2021,13:00,5.797,R,ugm-3 (Ref.eq),17.82882,R,ugm-3,24.34695,R,ugm-3,51.68409,R,ugm-3
03-01-2021,14:00,5.797,R,ugm-3 (Ref.eq),21.29760,R,ugm-3,30.82693,R,ugm-3,63.48280,R,ugm-3
03-01-2021,15:00,5.797,R,ugm-3 (Ref.eq),21.03651,R,ugm-3,27.08333,R,ugm-3,59.33886,R,ugm-3
03-01-2021,16:00,7.730,R,ugm-3 (Ref.eq),13.83785,R,ugm-3,27.81884,R,ugm-3,49.03658,R,ugm-3
03-01-2021,17:00,12.561,R,ugm-3 (Ref.eq),13.24107,R,ugm-3,24.12952,R,ugm-3,44.43220,R,ugm-3
03-01-2021,18:00,16.425,R,ugm-3 (Ref.eq),16.22497,R,ugm-3,25.59750,R,ugm-3,50.47544,R,ugm-3
03-01-2021,19:00,24.155,R,ugm-3 (Ref.eq),27.52650,R,ugm-3,44.35551,R,ugm-3,86.56222,R,ugm-3
03-01-2021,20:00,11.594,R,ugm-3 (Ref.eq),27.11621,R,ugm-3,39.28669,R,ugm-3,80.86431,R,ugm-3
03-01-2021,21:00,12.561,R,ugm-3 (Ref.eq),27.78759,R,ugm-3,43.37963,R,ugm-3,85.98667,R,ugm-3
03-01-2021,22:00,43.479,R,ugm-3 (Ref.eq),47.33215,R,ugm-3,44.89412,R,ugm-3,117.46907,R,ugm-3
03-01-2021,23:00,19.324,R,ugm-3 (Ref.eq),105.92853,R,ugm-3,54.84738,R,ugm-3,217.26887,R,ugm-3
03-01-2021,24:00,14.493,R,ugm-3 (Ref.eq),117.23006,R,ugm-3,54.38213,R,ugm-3,234.13238,R,ugm-3
04-01-2021,01:00,13.527,R,ugm-3 (Ref.eq),83.01116,R,ugm-3,42.20708,R,ugm-3,169.48909,R,ugm-3
04-01-2021,02:00,7.730,R,ugm-3 (Ref.eq),61.59857,R,ugm-3,26.46009,R,ugm-3,120.90990,R,ugm-3
04-01-2021,03:00,9.662,R,ugm-3 (Ref.eq),49.37347,R,ugm-3,20.22359,R,ugm-3,95.92852,R,ugm-3
04-01-2021,04:00,5.797,R,ugm-3 (Ref.eq),67.78581,R,ugm-3,36.61232,R,ugm-3,140.54912,R,ugm-3
04-01-2021,05:00,9.662,R,ugm-3 (Ref.eq),27.15167,R,ugm-3,24.37652,R,ugm-3,66.00851,R,ugm-3
04-01-2021,06:00,5.797,R,ugm-3 (Ref.eq),13.03430,R,ugm-3,19.56181,R,ugm-3,39.54746,R,ugm-3
04-01-2021,07:00,5.797,R,ugm-3 (Ref.eq),29.80335,R,ugm-3,40.71855,R,ugm-3,86.41638,R,ugm-3
04-01-2021,08:00,8.696,R,ugm-3 (Ref.eq),34.02362,R,ugm-3,58.34498,R,ugm-3,110.51381,R,ugm-3
04-01-2021,09:00,9.662,R,ugm-3 (Ref.eq),28.30945,R,ugm-3,50.38828,R,ugm-3,93.79549,R,ugm-3
04-01-2021,10:00,11.594,R,ugm-3 (Ref.eq),49.74694,R,ugm-3,53.72170,R,ugm-3,129.99929,R,ugm-3
04-01-2021,11:00,13.527,R,ugm-3 (Ref.eq),30.55030,R,ugm-3,41.12977,R,ugm-3,87.97291,R,ugm-3
04-01-2021,12:00,10.628,R,ugm-3 (Ref.eq),18.59908,R,ugm-3,23.94271,R,ugm-3,52.46091,R,ugm-3
04-01-2021,13:00,7.730,R,ugm-3 (Ref.eq),12.28735,R,ugm-3,23.99313,R,ugm-3,42.83347,R,ugm-3
04-01-2021,14:00,8.696,R,ugm-3 (Ref.eq),14.26677,R,ugm-3,30.23961,R,ugm-3,52.11501,R,ugm-3
04-01-2021,15:00,8.696,R,ugm-3 (Ref.eq),14.04268,R,ugm-3,33.06213,R,ugm-3,54.59393,R,ugm-3
04-01-2021,16:00,8.696,R,ugm-3 (Ref.eq),20.16768,R,ugm-3,43.44432,R,ugm-3,74.36766,R,ugm-3
04-01-2021,17:00,6.763,R,ugm-3 (Ref.eq),29.24314,R,ugm-3,43.53761,R,ugm-3,88.37646,R,ugm-3
04-01-2021,18:00,32.851,R,ugm-3 (Ref.eq),90.19434,R,ugm-3,66.99327,R,ugm-3,205.28934,R,ugm-3
04-01-2021,19:00,24.155,R,ugm-3 (Ref.eq),42.09069,R,ugm-3,55.89133,R,ugm-3,120.42949,R,ugm-3
04-01-2021,20:00,11.594,R,ugm-3 (Ref.eq),16.91844,R,ugm-3,36.49300,R,ugm-3,62.43425,R,ugm-3
04-01-2021,21:00,14.493,R,ugm-3 (Ref.eq),7.05869,R,ugm-3,23.30525,R,ugm-3,34.12842,R,ugm-3
04-01-2021,22:00,9.662,R,ugm-3 (Ref.eq),7.91768,R,ugm-3,24.75531,R,ugm-3,36.89559,R,ugm-3
04-01-2021,23:00,10.628,R,ugm-3 (Ref.eq),9.15015,R,ugm-3,25.51742,R,ugm-3,39.54746,R,ugm-3
04-01-2021,24:00,13.527,R,ugm-3 (Ref.eq),15.42454,R,ugm-3,31.51980,R,ugm-3,55.17043,R,ugm-3
05-01-2021,01:00,10.628,R,ugm-3 (Ref.eq),13.06379,R,ugm-3,26.39535,R,ugm-3,46.42620,R,ugm-3
05-01-2021,02:00,5.797,R,ugm-3 (Ref.eq),6.38231,R,ugm-3,8.76902,R,ugm-3,18.55508,R,ugm-3
05-01-2021,03:00,6.763,R,ugm-3 (Ref.eq),4.30058,R,ugm-3,11.36427,R,ugm-3,17.95839,R,ugm-3
05-01-2021,04:00,6.763,R,ugm-3 (Ref.eq),4.82413,R,ugm-3,13.15999,R,ugm-3,20.55688,R,ugm-3
05-01-2021,05:00,5.797,R,ugm-3 (Ref.eq),5.53466,R,ugm-3,11.66631,R,ugm-3,20.15267,R,ugm-3
05-01-2021,06:00,5.797,R,ugm-3 (Ref.eq),13.50008,R,ugm-3,21.68429,R,ugm-3,42.38412,R,ugm-3
05-01-2021,07:00,6.763,R,ugm-3 (Ref.eq),61.85353,R,ugm-3,50.84744,R,ugm-3,145.68820,R,ugm-3
05-01-2021,08:00,15.459,R,ugm-3 (Ref.eq),145.88308,R,ugm-3,81.37746,R,ugm-3,305.06173,R,ugm-3
05-01-2021,09:00,17.392,R,ugm-3 (Ref.eq),138.21684,R,ugm-3,89.84080,R,ugm-3,301.77033,R,ugm-3
05-01-2021,10:00,7.730,R,ugm-3 (Ref.eq),49.10138,R,ugm-3,58.85166,R,ugm-3,134.13939,R,ugm-3
05-01-2021,11:00,6.763,R,ugm-3 (Ref.eq),13.76185,R,ugm-3,29.82903,R,ugm-3,50.93024,R,ugm-3
05-01-2021,12:00,5.797,R,ugm-3 (Ref.eq),9.91003,R,ugm-3,21.24132,R,ugm-3,36.43649,R,ugm-3
05-01-2021,13:00,4.831,R,ugm-3 (Ref.eq),19.93224,R,ugm-3,30.47310,R,ugm-3,61.03545,R,ugm-3
05-01-2021,14:00,5.797,R,ugm-3 (Ref.eq),24.75637,R,ugm-3,29.94775,R,ugm-3,67.90699,R,ugm-3
05-01-2021,15:00,11.594,R,ugm-3 (Ref.eq),22.66218,R,ugm-3,38.41351,R,ugm-3,73.16169,R,ugm-3
05-01-2021,16:00,11.594,R,ugm-3 (Ref.eq),35.11516,R,ugm-3,44.95756,R,ugm-3,98.80004,R,ugm-3
05-01-2021,17:00,15.459,R,ugm-3 (Ref.eq),29.91706,R,ugm-3,51.71523,R,ugm-3,97.58742,R,ugm-3
05-01-2021,18:00,25.121,R,ugm-3 (Ref.eq),23.78407,R,ugm-3,51.12931,R,ugm-3,87.59770,R,ugm-3
05-01-2021,19:00,22.223,R,ugm-3 (Ref.eq),31.15114,R,ugm-3,44.74152,R,ugm-3,92.50594,R,ugm-3
05-01-2021,20:00,24.155,R,ugm-3 (Ref.eq),87.99357,R,ugm-3,79.30878,R,ugm-3,214.23037,R,ugm-3
05-01-2021,21:00,23.189,R,ugm-3 (Ref.eq),84.06695,R,ugm-3,62.92482,R,ugm-3,191.82568,R,ugm-3
05-01-2021,22:00,21.256,R,ugm-3 (Ref.eq),84.29133,R,ugm-3,66.62286,R,ugm-3,195.86776,R,ugm-3
05-01-2021,23:00,27.054,R,ugm-3 (Ref.eq),61.70395,R,ugm-3,50.21064,R,ugm-3,144.82204,R,ugm-3
05-01-2021,24:00,12.561,R,ugm-3 (Ref.eq),39.93928,R,ugm-3,41.60275,R,ugm-3,102.84213,R,ugm-3
06-01-2021,01:00,14.493,R,ugm-3 (Ref.eq),52.32330,R,ugm-3,47.01725,R,ugm-3,127.24518,R,ugm-3
06-01-2021,02:00,14.493,R,ugm-3 (Ref.eq),52.77264,R,ugm-3,36.99695,R,ugm-3,117.91387,R,ugm-3
06-01-2021,03:00,12.561,R,ugm-3 (Ref.eq),46.95616,R,ugm-3,32.40044,R,ugm-3,104.39889,R,ugm-3
06-01-2021,04:00,12.561,R,ugm-3 (Ref.eq),49.16542,R,ugm-3,29.64918,R,ugm-3,105.03511,R,ugm-3
06-01-2021,05:00,13.527,R,ugm-3 (Ref.eq),41.86363,R,ugm-3,27.36869,R,ugm-3,91.55869,R,ugm-3
06-01-2021,06:00,16.425,R,ugm-3 (Ref.eq),58.52670,R,ugm-3,34.15085,R,ugm-3,123.89054,R,ugm-3
06-01-2021,07:00,18.358,R,ugm-3 (Ref.eq),122.67017,R,ugm-3,47.83250,R,ugm-3,235.92413,R,ugm-3
06-01-2021,08:00,27.054,R,ugm-3 (Ref.eq),262.26552,R,ugm-3,92.90673,R,ugm-3,495.04159,R,ugm-3
06-01-2021,09:00,36.716,R,ugm-3 (Ref.eq),353.25713,R,ugm-3,106.89217,R,ugm-3,648.54555,R,ugm-3
06-01-2021,10:00,35.749,R,ugm-3 (Ref.eq),407.85209,R,ugm-3,97.21462,R,ugm-3,722.57911,R,ugm-3
06-01-2021,11:00,,,,400.66263,R,ugm-3,114.96688,R,ugm-3,729.30768,R,ugm-3
06-01-2021,12:00,,,,,,,,,,,,
06-01-2021,13:00,33.817,R,ugm-3 (Ref.eq),230.24996,R,ugm-3,89.36335,R,ugm-3,442.40836,R,ugm-3
06-01-2021,14:00,32.851,R,ugm-3 (Ref.eq),205.27407,R,ugm-3,86.88288,R,ugm-3,401.63206,R,ugm-3
06-01-2021,15:00,32.851,R,ugm-3 (Ref.eq),253.39103,R,ugm-3,92.45929,R,ugm-3,480.98678,R,ugm-3
06-01-2021,16:00,28.020,R,ugm-3 (Ref.eq),255.63774,R,ugm-3,87.22138,R,ugm-3,479.19378,R,ugm-3
06-01-2021,17:00,37.682,R,ugm-3 (Ref.eq),267.65762,R,ugm-3,102.39546,R,ugm-3,512.79808,R,ugm-3
06-01-2021,18:00,51.209,R,ugm-3 (Ref.eq),247.58704,R,ugm-3,85.91568,R,ugm-3,465.54384,R,ugm-3
06-01-2021,19:00,63.769,R,ugm-3 (Ref.eq),197.03615,R,ugm-3,80.31173,R,ugm-3,382.42961,R,ugm-3
06-01-2021,20:00,60.871,R,ugm-3 (Ref.eq),168.05364,R,ugm-3,76.74482,R,ugm-3,334.42347,R,ugm-3
06-01-2021,21:00,76.330,R,ugm-3 (Ref.eq),179.84884,R,ugm-3,70.11115,R,ugm-3,345.87554,R,ugm-3
06-01-2021,22:00,63.769,R,ugm-3 (Ref.eq),118.58865,R,ugm-3,56.80916,R,ugm-3,238.64255,R,ugm-3
06-01-2021,23:00,57.972,R,ugm-3 (Ref.eq),85.97396,R,ugm-3,46.20267,R,ugm-3,178.02758,R,ugm-3
06-01-2021,24:00,43.479,R,ugm-3 (Ref.eq),95.26035,R,ugm-3,39.42494,R,ugm-3,185.48877,R,ugm-3
07-01-2021,01:00,27.054,R,ugm-3 (Ref.eq),47.77137,R,ugm-3,44.69382,R,ugm-3,117.94223,R,ugm-3
07-01-2021,02:00,16.425,R,ugm-3 (Ref.eq),15.67420,R,ugm-3,32.00839,R,ugm-3,56.04183,R,ugm-3
07-01-2021,03:00,8.696,R,ugm-3 (Ref.eq),5.12906,R,ugm-3,18.32567,R,ugm-3,26.19011,R,ugm-3
07-01-2021,04:00,10.628,R,ugm-3 (Ref.eq),2.09655,R,ugm-3,9.04208,R,ugm-3,12.25674,R,ugm-3
07-01-2021,05:00,13.527,R,ugm-3 (Ref.eq),2.99507,R,ugm-3,12.34736,R,ugm-3,16.93974,R,ugm-3
07-01-2021,06:00,14.493,R,ugm-3 (Ref.eq),9.80886,R,ugm-3,12.71108,R,ugm-3,27.75111,R,ugm-3
07-01-2021,07:00,15.459,R,ugm-3 (Ref.eq),32.30932,R,ugm-3,42.96344,R,ugm-3,92.50371,R,ugm-3
07-01-2021,08:00,20.290,R,ugm-3 (Ref.eq),110.85503,R,ugm-3,50.12567,R,ugm-3,220.10101,R,ugm-3
07-01-2021,09:00,19.324,R,ugm-3 (Ref.eq),164.09240,R,ugm-3,72.50503,R,ugm-3,324.10986,R,ugm-3
07-01-2021,10:00,20.290,R,ugm-3 (Ref.eq),138.93381,R,ugm-3,73.27010,R,ugm-3,286.29897,R,ugm-3
07-01-2021,11:00,17.392,R,ugm-3 (Ref.eq),82.10236,R,ugm-3,78.94937,R,ugm-3,204.83790,R,ugm-3
07-01-2021,12:00,9.662,R,ugm-3 (Ref.eq),47.88368,R,ugm-3,62.96453,R,ugm-3,136.38515,R,ugm-3
07-01-2021,13:00,18.358,R,ugm-3 (Ref.eq),74.95163,R,ugm-3,74.82400,R,ugm-3,189.74823,R,ugm-3
07-01-2021,14:00,24.155,R,ugm-3 (Ref.eq),95.28067,R,ugm-3,85.56899,R,ugm-3,231.66397,R,ugm-3
07-01-2021,15:00,22.223,R,ugm-3 (Ref.eq),127.85205,R,ugm-3,96.15900,R,ugm-3,292.19608,R,ugm-3
07-01-2021,16:00,7.730,R,ugm-3 (Ref.eq),51.55264,R,ugm-3,53.52309,R,ugm-3,132.56938,R,ugm-3
07-01-2021,17:00,16.425,R,ugm-3 (Ref.eq),69.97232,R,ugm-3,76.61953,R,ugm-3,183.90893,R,ugm-3
07-01-2021,18:00,26.087,R,ugm-3 (Ref.eq),55.55855,R,ugm-3,67.03782,R,ugm-3,152.22641,R,ugm-3
07-01-2021,19:00,24.155,R,ugm-3 (Ref.eq),71.39498,R,ugm-3,68.83012,R,ugm-3,178.30090,R,ugm-3
07-01-2021,20:00,11.594,R,ugm-3 (Ref.eq),30.25021,R,ugm-3,40.62830,R,ugm-3,87.01130,R,ugm-3
07-01-2021,21:00,20.290,R,ugm-3 (Ref.eq),37.99995,R,ugm-3,51.17767,R,ugm-3,109.44345,R,ugm-3
07-01-2021,22:00,11.594,R,ugm-3 (Ref.eq),26.73100,R,ugm-3,39.43345,R,ugm-3,80.42041,R,ugm-3
07-01-2021,23:00,7.730,R,ugm-3 (Ref.eq),9.02265,R,ugm-3,14.37910,R,ugm-3,28.21363,R,ugm-3
07-01-2021,24:00,5.797,R,ugm-3 (Ref.eq),3.81872,R,ugm-3,7.90465,R,ugm-3,13.75993,R,ugm-3
08-01-2021,01:00,4.831,R,ugm-3 (Ref.eq),2.09617,R,ugm-3,5.33897,R,ugm-3,8.55306,R,ugm-3
08-01-2021,02:00,2.899,R,ugm-3 (Ref.eq),4.29216,R,ugm-3,6.36394,R,ugm-3,12.94517,R,ugm-3
08-01-2021,03:00,2.899,R,ugm-3 (Ref.eq),5.53988,R,ugm-3,6.87801,R,ugm-3,15.37238,R,ugm-3
08-01-2021,04:00,3.865,R,ugm-3 (Ref.eq),6.43824,R,ugm-3,8.33230,R,ugm-3,18.20414,R,ugm-3
08-01-2021,05:00,2.899,R,ugm-3 (Ref.eq),3.18169,R,ugm-3,6.50629,R,ugm-3,11.38481,R,ugm-3
08-01-2021,06:00,0.966,R,ugm-3 (Ref.eq),7.52376,R,ugm-3,15.10534,R,ugm-3,26.64161,R,ugm-3
08-01-2021,07:00,1.932,R,ugm-3 (Ref.eq),10.66802,R,ugm-3,27.39032,R,ugm-3,43.74772,R,ugm-3
08-01-2021,08:00,9.662,R,ugm-3 (Ref.eq),47.68792,R,ugm-3,57.71818,R,ugm-3,130.83863,R,ugm-3
08-01-2021,09:00,9.662,R,ugm-3 (Ref.eq),57.49501,R,ugm-3,78.62680,R,ugm-3,166.78458,R,ugm-3
08-01-2021,10:00,14.493,R,ugm-3 (Ref.eq),59.32916,R,ugm-3,65.06537,R,ugm-3,156.03547,R,ugm-3
08-01-2021,11:00,20.290,R,ugm-3 (Ref.eq),29.79559,R,ugm-3,45.50813,R,ugm-3,91.19407,R,ugm-3
08-01-2021,12:00,19.324,R,ugm-3 (Ref.eq),30.46936,R,ugm-3,34.99732,R,ugm-3,81.71635,R,ugm-3
08-01-2021,13:00,22.223,R,ugm-3 (Ref.eq),20.96172,R,ugm-3,31.89148,R,ugm-3,64.03233,R,ugm-3
08-01-2021,14:00,30.918,R,ugm-3 (Ref.eq),21.29861,R,ugm-3,38.02088,R,ugm-3,70.67829,R,ugm-3
08-01-2021,15:00,39.614,R,ugm-3 (Ref.eq),29.72073,R,ugm-3,45.73850,R,ugm-3,91.30965,R,ugm-3
08-01-2021,16:00,39.614,R,ugm-3 (Ref.eq),73.77777,R,ugm-3,76.54544,R,ugm-3,189.66978,R,ugm-3
08-01-2021,17:00,41.547,R,ugm-3 (Ref.eq),190.93882,R,ugm-3,116.10195,R,ugm-3,408.87072,R,ugm-3
08-01-2021,18:00,27.054,R,ugm-3 (Ref.eq),189.17953,R,ugm-3,102.90698,R,ugm-3,392.97822,R,ugm-3
08-01-2021,19:00,28.020,R,ugm-3 (Ref.eq),176.30305,R,ugm-3,91.03902,R,ugm-3,361.36659,R,ugm-3
08-01-2021,20:00,60.871,R,ugm-3 (Ref.eq),171.84868,R,ugm-3,87.06205,R,ugm-3,350.55969,R,ugm-3
08-01-2021,21:00,84.059,R,ugm-3 (Ref.eq),184.08883,R,ugm-3,88.98323,R,ugm-3,371.24884,R,ugm-3
08-01-2021,22:00,70.533,R,ugm-3 (Ref.eq),144.67331,R,ugm-3,76.83414,R,ugm-3,298.66345,R,ugm-3
08-01-2021,23:00,79.228,R,ugm-3 (Ref.eq),137.52386,R,ugm-3,69.01442,R,ugm-3,279.88140,R,ugm-3
08-01-2021,24:00,85.026,R,ugm-3 (Ref.eq),115.40176,R,ugm-3,59.59131,R,ugm-3,236.53821,R,ugm-3
09-01-2021,01:00,66.668,R,ugm-3 (Ref.eq),119.56013,R,ugm-3,52.75156,R,ugm-3,236.07453,R,ugm-3
09-01-2021,02:00,57.006,R,ugm-3 (Ref.eq),90.81779,R,ugm-3,44.75519,R,ugm-3,184.00719,R,ugm-3
09-01-2021,03:00,63.769,R,ugm-3 (Ref.eq),120.32110,R,ugm-3,39.12633,R,ugm-3,223.61611,R,ugm-3
09-01-2021,04:00,52.175,R,ugm-3 (Ref.eq),89.33327,R,ugm-3,35.11216,R,ugm-3,172.08793,R,ugm-3
09-01-2021,05:00,39.614,R,ugm-3 (Ref.eq),54.56553,R,ugm-3,33.65883,R,ugm-3,117.32480,R,ugm-3
09-01-2021,06:00,32.851,R,ugm-3 (Ref.eq),43.45033,R,ugm-3,37.99316,R,ugm-3,104.61606,R,ugm-3
09-01-2021,07:00,29.952,R,ugm-3 (Ref.eq),33.45787,R,ugm-3,47.13363,R,ugm-3,98.43499,R,ugm-3
09-01-2021,08:00,28.986,R,ugm-3 (Ref.eq),70.80794,R,ugm-3,56.35417,R,ugm-3,164.92482,R,ugm-3
09-01-2021,09:00,38.648,R,ugm-3 (Ref.eq),162.27443,R,ugm-3,71.44300,R,ugm-3,320.26032,R,ugm-3
09-01-2021,10:00,19.324,R,ugm-3 (Ref.eq),92.55181,R,ugm-3,60.79365,R,ugm-3,202.70445,R,ugm-3
09-01-2021,11:00,17.392,R,ugm-3 (Ref.eq),56.51162,R,ugm-3,60.54041,R,ugm-3,147.19035,R,ugm-3
09-01-2021,12:00,17.392,R,ugm-3 (Ref.eq),75.67318,R,ugm-3,56.51948,R,ugm-3,172.55007,R,ugm-3
09-01-2021,13:00,12.561,R,ugm-3 (Ref.eq),34.50577,R,ugm-3,37.03513,R,ugm-3,89.94324,R,ugm-3
09-01-2021,14:00,15.459,R,ugm-3 (Ref.eq),40.00723,R,ugm-3,37.14919,R,ugm-3,98.49276,R,ugm-3
09-01-2021,15:00,15.459,R,ugm-3 (Ref.eq),43.71230,R,ugm-3,54.45944,R,ugm-3,121.48403,R,ugm-3
09-01-2021,16:00,15.459,R,ugm-3 (Ref.eq),41.31711,R,ugm-3,44.49900,R,ugm-3,107.85101,R,ugm-3
09-01-2021,17:00,19.324,R,ugm-3 (Ref.eq),43.41290,R,ugm-3,51.33695,R,ugm-3,117.90247,R,ugm-3
09-01-2021,18:00,25.121,R,ugm-3 (Ref.eq),43.52518,R,ugm-3,52.95558,R,ugm-3,119.69325,R,ugm-3
09-01-2021,19:00,27.054,R,ugm-3 (Ref.eq),34.01925,R,ugm-3,37.78112,R,ugm-3,89.94324,R,ugm-3
09-01-2021,20:00,24.155,R,ugm-3 (Ref.eq),28.85461,R,ugm-3,35.53313,R,ugm-3,79.77624,R,ugm-3
09-01-2021,21:00,22.223,R,ugm-3 (Ref.eq),24.58817,R,ugm-3,26.36228,R,ugm-3,64.06362,R,ugm-3
09-01-2021,22:00,31.885,R,ugm-3 (Ref.eq),15.11967,R,ugm-3,25.68773,R,ugm-3,48.87089,R,ugm-3
09-01-2021,23:00,29.952,R,ugm-3 (Ref.eq),15.11967,R,ugm-3,25.16783,R,ugm-3,48.35099,R,ugm-3
09-01-2021,24:00,20.290,R,ugm-3 (Ref.eq),11.75142,R,ugm-3,15.02413,R,ugm-3,33.04273,R,ugm-3
10-01-2021,01:00,15.459,R,ugm-3 (Ref.eq),4.04116,R,ugm-3,10.43365,R,ugm-3,16.63002,R,ugm-3
10-01-2021,02:00,5.797,R,ugm-3 (Ref.eq),5.83724,R,ugm-3,6.52485,R,ugm-3,15.47515,R,ugm-3
10-01-2021,03:00,5.797,R,ugm-3 (Ref.eq),7.97007,R,ugm-3,9.66403,R,ugm-3,21.88464,R,ugm-3
10-01-2021,04:00,7.730,R,ugm-3 (Ref.eq),9.99066,R,ugm-3,10.08818,R,ugm-3,25.40697,R,ugm-3
10-01-2021,05:00,4.831,R,ugm-3 (Ref.eq),2.61927,R,ugm-3,3.20173,R,ugm-3,7.21789,R,ugm-3
10-01-2021,06:00,3.865,R,ugm-3 (Ref.eq),3.44247,R,ugm-3,5.69281,R,ugm-3,10.97119,R,ugm-3
10-01-2021,07:00,5.797,R,ugm-3 (Ref.eq),4.67727,R,ugm-3,9.57378,R,ugm-3,16.74550,R,ugm-3
10-01-2021,08:00,6.763,R,ugm-3 (Ref.eq),8.15716,R,ugm-3,11.51366,R,ugm-3,24.02113,R,ugm-3
10-01-2021,09:00,5.797,R,ugm-3 (Ref.eq),11.33771,R,ugm-3,17.03065,R,ugm-3,34.41489,R,ugm-3
10-01-2021,10:00,2.899,R,ugm-3 (Ref.eq),9.76615,R,ugm-3,13.72378,R,ugm-3,28.69833,R,ugm-3
10-01-2021,11:00,4.831,R,ugm-3 (Ref.eq),15.37887,R,ugm-3,12.56658,R,ugm-3,36.14719,R,ugm-3
10-01-2021,12:00,5.797,R,ugm-3 (Ref.eq),17.28720,R,ugm-3,13.68253,R,ugm-3,40.18921,R,ugm-3
10-01-2021,13:00,6.763,R,ugm-3 (Ref.eq),16.53884,R,ugm-3,30.13193,R,ugm-3,55.49113,R,ugm-3
10-01-2021,14:00,5.797,R,ugm-3 (Ref.eq),34.94858,R,ugm-3,30.71786,R,ugm-3,84.30494,R,ugm-3
10-01-2021,15:00,9.662,R,ugm-3 (Ref.eq),36.74466,R,ugm-3,34.60438,R,ugm-3,90.94540,R,ugm-3
10-01-2021,16:00,14.493,R,ugm-3 (Ref.eq),27.05335,R,ugm-3,31.91028,R,ugm-3,73.39150,R,ugm-3
10-01-2021,17:00,10.628,R,ugm-3 (Ref.eq),22.89993,R,ugm-3,26.73014,R,ugm-3,61.84287,R,ugm-3
10-01-2021,18:00,8.696,R,ugm-3 (Ref.eq),18.44716,R,ugm-3,19.75701,R,ugm-3,48.04227,R,ugm-3
10-01-2021,19:00,9.662,R,ugm-3 (Ref.eq),7.89524,R,ugm-3,11.16461,R,ugm-3,23.27047,R,ugm-3
10-01-2021,20:00,8.696,R,ugm-3 (Ref.eq),9.13004,R,ugm-3,19.37632,R,ugm-3,33.37552,R,ugm-3
10-01-2021,21:00,9.662,R,ugm-3 (Ref.eq),6.28626,R,ugm-3,12.59231,R,ugm-3,22.23110,R,ugm-3
10-01-2021,22:00,5.797,R,ugm-3 (Ref.eq),4.71469,R,ugm-3,5.76311,R,ugm-3,12.99220,R,ugm-3
10-01-2021,23:00,2.899,R,ugm-3 (Ref.eq),4.82695,R,ugm-3,5.24453,R,ugm-3,12.64574,R,ugm-3
10-01-2021,24:00,4.831,R,ugm-3 (Ref.eq),2.73153,R,ugm-3,6.14773,R,ugm-3,10.33602,R,ugm-3
11-01-2021,01:00,5.797,R,ugm-3 (Ref.eq),2.09504,R,ugm-3,2.40565,R,ugm-3,5.61800,R,ugm-3
11-01-2021,02:00,3.865,R,ugm-3 (Ref.eq),4.23996,R,ugm-3,15.73995,R,ugm-3,22.24114,R,ugm-3
11-01-2021,03:00,7.730,R,ugm-3 (Ref.eq),1.01011,R,ugm-3,3.58820,R,ugm-3,5.13701,R,ugm-3
11-01-2021,04:00,5.797,R,ugm-3 (Ref.eq),2.61880,R,ugm-3,3.89209,R,ugm-3,7.90753,R,ugm-3
11-01-2021,05:00,4.831,R,ugm-3 (Ref.eq),2.16986,R,ugm-3,0.88642,R,ugm-3,4.21350,R,ugm-3
11-01-2021,06:00,4.831,R,ugm-3 (Ref.eq),3.51668,R,ugm-3,3.61203,R,ugm-3,9.00420,R,ugm-3
11-01-2021,07:00,4.831,R,ugm-3 (Ref.eq),14.74011,R,ugm-3,14.51226,R,ugm-3,37.11345,R,ugm-3
11-01-2021,08:00,3.865,R,ugm-3 (Ref.eq),33.74513,R,ugm-3,44.12979,R,ugm-3,95.87161,R,ugm-3
11-01-2021,09:00,1.932,R,ugm-3 (Ref.eq),33.37102,R,ugm-3,32.40924,R,ugm-3,83.57742,R,ugm-3
11-01-2021,10:00,0.966,R,ugm-3 (Ref.eq),21.73606,R,ugm-3,36.80069,R,ugm-3,70.12884,R,ugm-3
11-01-2021,11:00,1.932,R,ugm-3 (Ref.eq),18.89278,R,ugm-3,24.19086,R,ugm-3,53.15939,R,ugm-3
11-01-2021,12:00,3.865,R,ugm-3 (Ref.eq),21.02524,R,ugm-3,36.27445,R,ugm-3,68.51270,R,ugm-3
11-01-2021,13:00,3.865,R,ugm-3 (Ref.eq),27.68448,R,ugm-3,29.06516,R,ugm-3,71.51410,R,ugm-3
11-01-2021,14:00,2.899,R,ugm-3 (Ref.eq),36.81287,R,ugm-3,30.53724,R,ugm-3,86.98285,R,ugm-3
11-01-2021,15:00,6.763,R,ugm-3 (Ref.eq),42.42459,R,ugm-3,49.17619,R,ugm-3,114.22632,R,ugm-3
11-01-2021,16:00,18.358,R,ugm-3 (Ref.eq),33.59549,R,ugm-3,36.97119,R,ugm-3,88.48355,R,ugm-3
11-01-2021,17:00,11.594,R,ugm-3 (Ref.eq),36.21429,R,ugm-3,33.30206,R,ugm-3,88.82987,R,ugm-3
11-01-2021,18:00,8.696,R,ugm-3 (Ref.eq),21.84829,R,ugm-3,28.37475,R,ugm-3,61.87499,R,ugm-3